Change the Weather History Date:

Friday, March 8, 2013

  Actual Average Record
Temperature  
Mean Temperature 72 °F -  
Max Temperature 83 °F 72 °F 86 °F (2003)
Min Temperature 61 °F 56 °F 53 °F (2007)
Cooling Degree Days 7    
Growing Degree Days 22 (Base 50)    
Moisture  
Dew Point 58 °F    
Average Humidity 73    
Maximum Humidity 94    
Minimum Humidity 35    
Precipitation  
Precipitation 0.12 in - - ()
Sea Level Pressure  
Sea Level Pressure 29.80 in    
Wind  
Wind Speed 7 mph ()    
Max Wind Speed 20 mph    
Max Gust Speed 24 mph    
Visibility 7.1 miles    
Events Rain    
Averages and records for this station are not official NWS values.
T = Trace of Precipitation, MM = Missing Value Source: Averaged Metar Reports

Daily Weather History Graph

Daily Weather History Graph

Search for Another Location

Airport or City:

Trip Planner

Search our weather history database for the weather conditions in past years. The results will help you decide how hot, cold, wet, or windy it might be!

Date:

Astronomy

Mar. 08, 2013 Rise Set
Actual Time 6:24 AM SAST 6:57 PM SAST
Civil Twilight 5:58 AM SAST 7:22 PM SAST
Nautical Twilight 5:29 AM SAST 7:52 PM SAST
Astronomical Twilight 4:59 AM SAST 8:22 PM SAST
Moon 2:43 AM SAST (3/8) 4:33 PM SAST (3/8)
Length of Visible Light 13h 23m
Length of Day
12h 33m
Waning Crescent, 14% of the Moon is Illuminated
Mar 8
Waning Crescent
Mar 11
New
Mar 19
First Quarter
Mar 27
Full
Apr 3
Last Quarter

Hourly Weather History & Observations

Time (SAST) Temp. Heat Index Dew Point Humidity Pressure Visibility Wind Dir Wind Speed Gust Speed Precip Events Conditions
12:00 AM 64.4 °F - 60.8 °F 88% 29.77 in 6.2 mi NNE 6.9 mph - N/A   Scattered Clouds
1:00 AM 64.4 °F - 60.8 °F 88% 29.77 in - SE 3.5 mph - N/A   Clear
2:00 AM 64 °F - 60 °F 81% 29.73 in 6 mi ENE 5.8 mph - -  
2:00 AM 62.6 °F - 59.0 °F 88% 29.74 in - ENE 4.6 mph - N/A   Clear
3:00 AM 68.0 °F - 57.2 °F 68% 29.68 in - NNW 10.4 mph 24.2 mph N/A   Clear
4:00 AM 64.4 °F - 59.0 °F 83% 29.68 in - WSW 3.5 mph - N/A   Clear
5:00 AM 65 °F - 62 °F 85% 29.74 in 12 mi West 4.6 mph - -   Scattered Clouds
5:00 AM 64.4 °F - 60.8 °F 88% 29.74 in 6.2 mi NW 5.8 mph - N/A   Partly Cloudy
6:00 AM 62.6 °F - 59.0 °F 88% 29.74 in - NNW 5.8 mph - N/A   Clear
7:00 AM 62.6 °F - 57.2 °F 82% 29.77 in - WNW 6.9 mph - N/A   Clear
8:00 AM 68 °F - 55 °F 53% 29.76 in 12 mi NNW 4.6 mph - -   Scattered Clouds
8:00 AM 68.0 °F - 55.4 °F 64% 29.77 in - North 4.6 mph - N/A   Clear
9:00 AM 69.8 °F - 55.4 °F 60% 29.77 in - NNW 5.8 mph - N/A   Clear
10:00 AM 73.4 °F - 53.6 °F 50% 29.77 in - West 4.6 mph - N/A   Clear
11:00 AM 77 °F - 54 °F 35% 29.75 in 12 mi West 4.6 mph - -   Scattered Clouds
11:00 AM 77.0 °F - 53.6 °F 44% 29.77 in 6.2 mi WSW 6.9 mph - N/A   Partly Cloudy
12:00 PM 78.8 °F - 55.4 °F 44% 29.74 in - South 11.5 mph - N/A   Clear
1:00 PM 82.4 °F 81.7 °F 55.4 °F 39% 29.74 in - SW 10.4 mph - N/A   Clear
2:00 PM 77 °F - 58 °F 41% 29.75 in 12 mi South 16.1 mph - -   Partly Cloudy
2:00 PM 77.0 °F - 57.2 °F 50% 29.74 in - South 16.1 mph - N/A   Clear
3:00 PM 73.4 °F - 62.6 °F 69% 29.77 in 6.2 mi SSW 18.4 mph - N/A   Scattered Clouds
4:00 PM 68.0 °F - 62.6 °F 83% 29.77 in 6.2 mi SSW 19.6 mph - N/A Rain Light Rain
5:00 PM 66.2 °F - 62.6 °F 88% 29.80 in 6.2 mi SSW 19.6 mph - N/A   Mostly Cloudy
6:00 PM 64.4 °F - 60.8 °F 88% 29.86 in 5.6 mi SW 16.1 mph - N/A Rain Light Rain
7:00 PM 62.6 °F - 60.8 °F 94% 29.89 in 2.5 mi SW 19.6 mph - N/A Rain Light Rain
8:00 PM 63 °F - 60 °F 87% 29.94 in 6 mi West 10.4 mph - - Rain Light Rain
8:00 PM 62.6 °F - 59.0 °F 88% 29.92 in 6.2 mi West 10.4 mph - N/A Rain Light Rain
9:00 PM 62.6 °F - 59.0 °F 88% 29.98 in 4.3 mi West 13.8 mph - N/A Rain Light Rain
10:00 PM 62.6 °F - 59.0 °F 88% 30.01 in 6.2 mi West 11.5 mph - N/A Rain Light Rain
11:00 PM 62.6 °F - 59.0 °F 88% 30.04 in 6.2 mi WNW 10.4 mph - N/A   Mostly Cloudy